Jonesville, VA

3:59 AM EST on January 22, 2017 (GMT -0500)
Jonesville

Weather History for K0VG - December, 2012

Change the Weather History Date:

Monday, December 3, 2012

  Actual Average (KLNP) Record (KLNP)
Temperature  
Mean Temperature 56 °F -  
Max Temperature 68 °F 46 °F 68 °F (2012)
Min Temperature 44 °F 31 °F 15 °F (2000)
Degree Days  
Heating Degree Days 9    
Growing Degree Days 6 (Base 50)    
Moisture  
Dew Point 47 °F    
Average Humidity 76    
Maximum Humidity 100    
Minimum Humidity 49    
Precipitation  
Precipitation 0.00 in - - ()
Sea Level Pressure  
Sea Level Pressure 30.28 in    
Wind  
Wind Speed 1 mph (SW)    
Max Wind Speed 8 mph    
Max Gust Speed 17 mph    
Visibility 10 miles    
Events      
Averages and records for this station are not official NWS values.
T = Trace of Precipitation, MM = Missing Value Source: NWS Daily Summary

Daily Weather History Graph

Daily Weather History Graph

Search for Another Location

Airport or City:

Trip Planner

Search our weather history database for the weather conditions in past years. The results will help you decide how hot, cold, wet, or windy it might be!

Date:

Astronomy

Dec. 03, 2012 Rise Set
Actual Time 7:28 AM EST 5:16 PM EST
Civil Twilight 7:00 AM EST 5:45 PM EST
Nautical Twilight 6:28 AM EST 6:17 PM EST
Astronomical Twilight 5:56 AM EST 6:48 PM EST
Moon 9:58 PM EST (12/3) 10:55 AM EST (12/3)
Length of Visible Light 10h 45m
Length of Day
9h 48m
Waning Gibbous, 78% of the Moon is Illuminated
Dec 3
Waning Gibbous
Dec 6
Last Quarter
Dec 13
New
Dec 20
First Quarter
Dec 28
Full

Hourly Weather History & Observations

Time (EST) Temp. Dew Point Humidity Pressure Visibility Wind Dir Wind Speed Gust Speed Precip Events Conditions
12:15 AM 55.4 °F 48.2 °F 77% 30.29 in 10.0 mi Calm Calm - N/A   Unknown
12:35 AM 55.4 °F 48.2 °F 77% 30.28 in 10.0 mi Calm Calm - N/A   Unknown
12:55 AM 55.4 °F 48.2 °F 77% 30.28 in 10.0 mi Calm Calm - N/A   Unknown
1:15 AM 53.6 °F 48.2 °F 82% 30.28 in 10.0 mi Calm Calm - N/A   Unknown
1:35 AM 53.6 °F 48.2 °F 82% 30.28 in 10.0 mi Calm Calm - N/A   Unknown
1:55 AM 53.6 °F 48.2 °F 82% 30.29 in 10.0 mi Calm Calm - N/A   Unknown
2:15 AM 53.6 °F 48.2 °F 82% 30.29 in 10.0 mi Calm Calm - N/A   Unknown
2:35 AM 53.6 °F 48.2 °F 82% 30.29 in 10.0 mi Calm Calm - N/A   Unknown
2:55 AM 53.6 °F 48.2 °F 82% 30.29 in 10.0 mi Calm Calm - N/A   Unknown
3:15 AM 51.8 °F 48.2 °F 88% 30.29 in 10.0 mi Calm Calm - N/A   Unknown
3:35 AM 51.8 °F 48.2 °F 88% 30.29 in 10.0 mi Calm Calm - N/A   Unknown
3:55 AM 53.6 °F 48.2 °F 82% 30.29 in 10.0 mi Calm Calm - N/A   Unknown
4:15 AM 51.8 °F 48.2 °F 88% 30.29 in 10.0 mi Calm Calm - N/A   Unknown
4:35 AM 51.8 °F 48.2 °F 88% 30.29 in 10.0 mi Calm Calm - N/A   Unknown
4:55 AM 51.8 °F 48.2 °F 88% 30.29 in 10.0 mi Calm Calm - N/A   Unknown
5:15 AM 50.0 °F 48.2 °F 94% 30.29 in 10.0 mi Calm Calm - N/A   Unknown
5:55 AM 50.0 °F 48.2 °F 94% 30.30 in 10.0 mi Calm Calm - N/A   Unknown
6:15 AM 50.0 °F 48.2 °F 94% 30.30 in 10.0 mi Calm Calm - N/A   Unknown
6:35 AM 48.2 °F 48.2 °F 100% 30.30 in 10.0 mi Calm Calm - N/A   Unknown
6:55 AM 48.2 °F 46.4 °F 93% 30.31 in 10.0 mi Calm Calm - N/A   Unknown
7:15 AM 48.2 °F 46.4 °F 93% 30.31 in 10.0 mi Calm Calm - N/A   Unknown
7:35 AM 48.2 °F 46.4 °F 93% 30.32 in 10.0 mi Calm Calm - N/A   Unknown
7:55 AM 48.2 °F 46.4 °F 93% 30.32 in 10.0 mi Calm Calm - N/A   Overcast
8:15 AM 48.2 °F 46.4 °F 93% 30.32 in 10.0 mi Calm Calm - N/A   Mostly Cloudy
8:35 AM 51.8 °F 48.2 °F 88% 30.33 in 10.0 mi Calm Calm - N/A   Clear
8:55 AM 53.6 °F 48.2 °F 82% 30.33 in 10.0 mi Calm Calm - N/A   Clear
9:15 AM 55.4 °F 48.2 °F 77% 30.33 in 10.0 mi Calm Calm - N/A   Clear
9:35 AM 57.2 °F 48.2 °F 72% 30.33 in 10.0 mi Calm Calm - N/A   Clear
9:55 AM 59.0 °F 48.2 °F 67% 30.33 in 10.0 mi Calm Calm - N/A   Clear
10:15 AM 60.8 °F 48.2 °F 63% 30.33 in 10.0 mi Calm Calm - N/A   Clear
10:35 AM 62.6 °F 48.2 °F 59% 30.33 in 10.0 mi Calm Calm - N/A   Clear
10:55 AM 62.6 °F 48.2 °F 59% 30.33 in 10.0 mi SSW 6.9 mph - N/A   Clear
11:15 AM 64.4 °F 48.2 °F 56% 30.32 in 10.0 mi SW 6.9 mph - N/A   Clear
11:55 AM 66.2 °F 48.2 °F 52% 30.30 in 10.0 mi WSW 8.1 mph - N/A   Partly Cloudy
12:15 PM 66.2 °F 48.2 °F 52% 30.29 in 10.0 mi SSW 8.1 mph 17.3 mph N/A   Partly Cloudy
12:35 PM 66.2 °F 48.2 °F 52% 30.28 in 10.0 mi SW 6.9 mph - N/A   Clear
12:55 PM 68.0 °F 48.2 °F 49% 30.27 in 10.0 mi WSW 6.9 mph - N/A   Clear
1:15 PM 68.0 °F 48.2 °F 49% 30.26 in 10.0 mi West 8.1 mph - N/A   Clear
1:35 PM 68.0 °F 48.2 °F 49% 30.26 in 10.0 mi SW 6.9 mph - N/A   Clear
1:55 PM 68.0 °F 48.2 °F 49% 30.25 in 10.0 mi SW 8.1 mph - N/A   Clear
2:15 PM 68.0 °F 48.2 °F 49% 30.24 in 10.0 mi WSW 5.8 mph - N/A   Clear
2:35 PM 68.0 °F 48.2 °F 49% 30.23 in 10.0 mi SW 5.8 mph - N/A   Clear
2:55 PM 68.0 °F 48.2 °F 49% 30.23 in 10.0 mi West 5.8 mph - N/A   Clear
3:15 PM 68.0 °F 48.2 °F 49% 30.23 in 10.0 mi WSW 5.8 mph - N/A   Clear
3:35 PM 68.0 °F 48.2 °F 49% 30.23 in 10.0 mi WSW 6.9 mph - N/A   Clear
3:55 PM 68.0 °F 48.2 °F 49% 30.23 in 10.0 mi WSW 5.8 mph - N/A   Clear
4:15 PM 68.0 °F 48.2 °F 49% 30.23 in 10.0 mi WSW 4.6 mph - N/A   Clear
4:35 PM 68.0 °F 48.2 °F 49% 30.23 in 10.0 mi Calm Calm - N/A   Clear
4:55 PM 66.2 °F 48.2 °F 52% 30.23 in 10.0 mi Calm Calm - N/A   Clear
5:15 PM 62.6 °F 50.0 °F 63% 30.23 in 10.0 mi Calm Calm - N/A   Unknown
5:35 PM 59.0 °F 50.0 °F 72% 30.23 in 10.0 mi Calm Calm - N/A   Unknown
5:55 PM 57.2 °F 48.2 °F 72% 30.23 in 10.0 mi Calm Calm - N/A   Unknown
6:15 PM 55.4 °F 48.2 °F 77% 30.24 in 10.0 mi Calm Calm - N/A   Unknown
6:55 PM 51.8 °F 46.4 °F 82% 30.25 in 10.0 mi Calm Calm - N/A   Unknown
7:15 PM 50.0 °F 46.4 °F 87% 30.25 in 10.0 mi Calm Calm - N/A   Unknown
7:55 PM 48.2 °F 46.4 °F 93% 30.26 in 10.0 mi Calm Calm - N/A   Unknown
8:15 PM 50.0 °F 46.4 °F 87% 30.26 in 10.0 mi Calm Calm - N/A   Unknown
8:35 PM 46.4 °F 44.6 °F 93% 30.26 in 10.0 mi Calm Calm - N/A   Unknown
8:55 PM 46.4 °F 44.6 °F 93% 30.26 in 10.0 mi Calm Calm - N/A   Unknown
9:15 PM 48.2 °F 46.4 °F 93% 30.27 in 10.0 mi Calm Calm - N/A   Unknown
9:35 PM 46.4 °F 44.6 °F 93% 30.27 in 10.0 mi Calm Calm - N/A   Unknown
9:55 PM 46.4 °F 44.6 °F 93% 30.26 in 10.0 mi Calm Calm - N/A   Unknown
10:15 PM 46.4 °F 44.6 °F 93% 30.26 in 10.0 mi Calm Calm - N/A   Unknown
10:35 PM 46.4 °F 44.6 °F 93% 30.26 in 10.0 mi Calm Calm - N/A   Unknown
10:55 PM 44.6 °F 42.8 °F 93% 30.26 in 10.0 mi Calm Calm - N/A   Unknown
11:15 PM 44.6 °F 42.8 °F 93% 30.26 in 10.0 mi Calm Calm - N/A   Unknown
11:35 PM 44.6 °F 42.8 °F 93% 30.26 in 10.0 mi Calm Calm - N/A   Unknown
11:55 PM 44.6 °F 42.8 °F 93% 30.27 in 10.0 mi Calm Calm - N/A   Unknown